Location: ?????????
(41.2393°N, 22.9479°E)
Time: 21:31:55
(UTC+00:00)

H-2A R/B - Pass Details

Date: 17 November 2025
Orbit: 303 x 31047 km, 27.9° (Epoch: 11 December)

Event Time Altitude Azimuth Distance (km) Brightness Sun altitude
Rises 16:18:08 0° 263° (W) 6,352 8.6 -13.4°
Reaches altitude 10° 16:26:01 10° 240° (WSW) 2,819 6.1 -14.8°
Maximum altitude 16:28:23 12° 215° (SW) 1,973 4.8 -15.3°
Drops below altitude 10° 16:29:59 10° 188° (S) 1,729 4.1 -15.6°
Enters shadow 16:31:55 - 155° (SSE) 1,995 4.1 -15.9°
